Location: Lucerne Valley
(34.4439°N, 116.9669°E)
Time: 21:01:07
(UTC-08:00)

Vanguard 2 - Visible Passes

Search period start: 17 February 2018 00:00
Search period end: 27 February 2018 00:00
Orbit: 553 x 2939 km, 32.9° (Epoch: 17 February)

Date Brightness Start Highest point End Pass type
(mag) Time Alt. Az. Time Alt. Az. Time Alt. Az.
17 Feb 7.7 04:04:06 10° WSW 04:11:29 73° S 04:11:29 73° S visible
18 Feb 8.9 02:10:38 10° WSW 02:20:46 55° SSE 02:26:50 10° E visible
18 Feb 8.1 04:22:23 10° W 04:28:43 61° WSW 04:28:43 61° WSW visible
19 Feb 8.7 02:28:44 10° WSW 02:38:55 65° SSE 02:44:30 13° E visible
19 Feb 8.7 04:40:41 10° W 04:45:56 45° W 04:45:56 45° W visible
20 Feb 8.5 02:46:59 10° WSW 02:57:03 74° S 03:01:43 18° E visible
20 Feb 9.3 04:59:00 10° W 05:03:09 33° W 05:03:09 33° W visible
21 Feb 8.3 03:05:19 10° W 03:15:11 79° S 03:18:56 26° E visible
21 Feb 9.8 05:17:19 10° W 05:20:22 25° W 05:20:22 25° W visible
22 Feb 8.2 03:23:43 10° W 03:33:20 80° S 03:36:08 36° E visible
22 Feb 10.2 05:35:39 10° W 05:37:34 18° W 05:37:34 18° W visible
23 Feb 8.1 03:42:07 10° W 03:51:27 77° S 03:53:21 48° ESE visible
23 Feb 10.6 05:54:06 10° W 05:54:47 12° W 05:54:47 12° W visible
24 Feb 8.0 04:00:31 10° W 04:09:32 69° SSW 04:10:34 59° SE visible
25 Feb 8.3 04:18:55 10° W 04:27:32 58° SSW 04:27:48 58° S visible
26 Feb 9.0 02:24:17 10° W 02:36:29 81° S 02:43:30 10° E visible
26 Feb 8.7 04:37:21 10° W 04:45:03 45° SW 04:45:03 45° SW visible
